[[{"header":{"parameterUnit":"m.s-1","parameterCategory":1,"la1":30.2991,"la2":30.254,"lo1":-89.0895,"lo2":-89.0444,"dy":0.0017,"dx":0.0017,"nx":28,"ny":28,"refTime":"2025-09-07T21:00:00:Z","depth":0,"parameterNumber":2,"parameterNumberName":"U-component_of_WINDS"},"data":[0,0,0,0,0,0,0,0,0,0,0,0,0,0,0,0,0,0,0,0,0,0,0,0,0,0,0,0,0,0,0,0,0,0,0,0,0,0,0,0,0,0,0,0,0,0,0,0,0,0,0,0,0,0,0,0,0,0,-2.211,-2.2111,0,-2.2154,-2.2155,-2.2155,-2.2111,-2.211,-2.2108,-2.2106,-2.2153,-2.2156,-2.2158,0,0,0,0,0,0,0,0,0,0,0,0,0,-2.1989,-2.1991,-2.211,-2.2111,-2.2111,-2.2154,-2.2155,-2.2155,-2.2112,-2.211,-2.2107,-2.2106,-2.2152,-2.2155,-2.2159,0,0,0,0,0,0,0,0,0,0,0,0,0,-2.2038,-2.1992,-2.211,-2.2094,-2.2094,-2.2154,-2.2155,-2.2155,-2.2112,-2.211,-2.2107,-2.2105,-2.2151,-2.2155,-2.2159,-2.2237,0,0,-2.2172,-2.2174,0,0,0,0,0,0,0,0,-2.2035,-2.2043,-2.2096,-2.2096,-2.2095,-2.2125,-2.2129,-2.2183,-2.2113,-2.2105,-2.2106,-2.2103,-2.2146,-2.215,-2.2164,-2.2239,-2.2241,-2.2173,-2.2175,-2.2177,-2.2178,0,0,0,0,0,0,0,-2.2032,-2.2041,-2.2127,-2.2097,-2.2096,-2.2086,-2.209,-2.2139,-2.2139,-2.2106,-2.2103,-2.2108,-2.2145,-2.216,-2.2165,-2.2242,-2.2172,-2.2176,-2.2179,-2.218,-2.2384,-2.2387,0,0,0,0,0,0,-2.203,-2.2038,-2.2126,-2.2129,-2.2058,-2.209,-2.2095,-2.2118,-2.2139,-2.2139,-2.211,-2.2106,-2.2154,-2.216,-2.2166,-2.226,-2.2177,-2.2181,-2.2183,-2.2382,-2.2385,-2.2388,0,0,0,0,0,0,-2.2028,-2.2038,-2.2124,-2.2083,-2.2093,-2.2095,-2.2121,-2.212,-2.2135,-2.2142,-2.2142,-2.2126,-2.2152,-2.216,-2.222,-2.2261,-2.2183,-2.2187,-2.2378,-2.2383,-2.2387,-2.2448,0,0,0,0,0,0,-2.2024,-2.2038,-2.2067,-2.2084,-2.2095,-2.2177,-2.2124,-2.2123,-2.2143,-2.2137,-2.2157,-2.2158,-2.2151,-2.2214,-2.2224,-2.2266,-2.219,-2.2375,-2.238,-2.2385,-2.2443,-2.2454,-2.2464,0,0,0,0,0,-2.202,-2.2083,-2.2069,-2.208,-2.2132,-2.218,-2.2186,-2.2177,-2.2146,-2.2176,-2.2181,-2.2157,-2.2255,-2.222,-2.2232,-2.2275,-2.2372,-2.2379,-2.2385,-2.2438,-2.2452,-2.2464,0,0,0,0,0,0,-2.2072,-2.2085,-2.207,-2.2139,-2.2159,-2.2172,-2.221,-2.2192,-2.222,-2.2214,-2.2201,-2.2206,-2.227,-2.2278,-2.224,-2.2352,-2.2308,-2.2317,-2.2345,-2.2358,-2.2369,-2.2366,-2.2194,0,0,0,0,0,-2.2092,-2.2129,-2.2138,-2.2199,-2.2209,-2.2208,-2.2228,-2.2219,-2.2239,-2.2247,-2.2256,-2.2276,-2.2311,-2.2335,-2.2367,-2.2443,-2.2447,-2.2478,-2.2489,-2.2497,-2.2506,-2.2548,-2.2562,-2.2409,-2.2409,-2.2409,0,0,-2.2133,-2.2144,-2.2169,-2.221,-2.2224,-2.2263,-2.2215,-2.2259,-2.2288,-2.2254,-2.2311,-2.2318,-2.234,-2.2408,-2.2438,-2.2417,-2.2549,-2.2506,-2.2513,-2.2517,-2.2556,-2.257,-2.2583,-2.2414,-2.2413,-2.2412,0,0,-2.2228,-2.224,-2.2292,-2.2307,-2.2328,-2.2327,-2.234,-2.2356,-2.2359,-2.2416,-2.2391,-2.2426,-2.2486,-2.2503,-2.252,-2.262,-2.2601,-2.2631,-2.2688,-2.2729,-2.2741,-2.2751,-2.2789,-2.2802,-2.2639,-2.264,-2.264,0,-2.2277,-2.2335,-2.2322,-2.2367,-2.2387,-2.2356,-2.2409,-2.2424,-2.2456,-2.247,-2.2445,-2.252,-2.2533,-2.2605,-2.263,-2.2643,-2.2658,-2.263,-2.274,-2.275,-2.276,-2.2796,-2.281,-2.2643,-2.2643,-2.2642,-2.2642,0,-2.2394,-2.2435,-2.2474,-2.2505,-2.2529,-2.2578,-2.2573,-2.2598,-2.2586,-2.2587,-2.2646,-2.266,-2.2695,-2.2711,-2.27,-2.2782,-2.2768,-2.2742,-2.2698,-2.2779,-2.2812,-2.2825,-2.2649,-2.2647,-2.2646,-2.2645,0,0,-2.2525,-2.2547,-2.2562,-2.2576,-2.2597,-2.2629,-2.2676,-2.2711,-2.2733,-2.2755,-2.2796,-2.2847,-2.2823,-2.2842,-2.2832,-2.2868,-2.2949,-2.2837,-2.2837,-2.2859,-2.3041,-2.3062,-2.3078,-2.2934,-2.2937,-2.2939,-2.304,0,-2.2622,-2.2705,-2.2695,-2.2775,-2.2813,-2.2784,-2.2826,-2.2843,-2.2846,-2.2878,-2.288,-2.2918,-2.2882,-2.2894,-2.2927,-2.2932,-2.2985,-2.2924,-2.2973,-2.2975,-2.2971,-2.3095,-2.3118,-2.3212,-2.3052,-2.3055,-2.3056,0,-2.2747,-2.2774,-2.2858,-2.2873,-2.2889,-2.2926,-2.2957,-2.2988,-2.3008,-2.3007,-2.3027,-2.3012,-2.306,-2.3014,-2.3081,-2.304,-2.3059,-2.3064,-2.3067,-2.3073,-2.3022,-2.3106,-2.3242,-2.3257,-2.3076,-2.3075,-2.3073,0,-2.2837,-2.2893,-2.2951,-2.2963,-2.2982,-2.301,-2.3019,-2.3036,-2.3057,-2.3083,-2.3097,-2.3129,-2.3147,-2.3172,-2.3166,-2.3132,-2.3235,-2.3188,-2.3237,-2.3237,-2.3261,-2.326,-2.3404,-2.327,-2.327,-2.327,-2.327,0,-2.2947,-2.3,-2.2991,-2.3027,-2.3085,-2.3072,-2.3131,-2.3136,-2.3151,-2.3188,-2.3164,-2.3199,-2.3187,-2.3222,-2.3216,-2.3274,-2.3281,-2.3283,-2.3281,-2.3286,-2.3286,-2.33,-2.3294,-2.3274,-2.3273,-2.3272,-2.3272,0,-2.3058,-2.3054,-2.3115,-2.3128,-2.3132,-2.3175,-2.3186,-2.322,-2.3219,-2.3266,-2.3276,-2.3276,-2.3316,-2.3311,-2.3355,-2.3351,-2.3423,-2.3412,-2.3417,-2.3415,-2.3465,-2.3461,-2.3624,-2.3646,-2.3496,-2.3498,-2.3499,0,-2.313,-2.317,-2.3187,-2.321,-2.3221,-2.3258,-2.3279,-2.3267,-2.3291,-2.3316,-2.3347,-2.3384,-2.3413,-2.3477,-2.3481,-2.3515,-2.3506,-2.3561,-2.3511,-2.3515,-2.3509,-2.3508,-2.3512,-2.3572,-2.3573,-2.3575,-2.3576,0,-2.3259,-2.3255,-2.3287,-2.3318,-2.3344,-2.3368,-2.339,-2.341,-2.34,-2.3428,-2.3467,-2.349,-2.3534,-2.3572,-2.3604,-2.3613,-2.3594,-2.3591,-2.3604,-2.3611,-2.3613,-2.3614,-2.3446,-2.3588,-2.3587,-2.3586,-2.3585,-2.3585,-2.3354,-2.3389,-2.3406,-2.3442,-2.3457,-2.3478,-2.3511,-2.3514,-2.3547,-2.3582,-2.3573,-2.3618,-2.3636,-2.3677,-2.369,-2.3725,-2.3705,-2.3724,-2.3729,-2.3735,-2.3742,-2.3605,-2.373,-2.373,-2.373,-2.3729,-2.3729,0,-2.3484,-2.3493,-2.3526,-2.3557,-2.3586,-2.3563,-2.3586,-2.3612,-2.3652,-2.367,-2.3699,-2.3745,-2.3781,-2.3788,-2.3822,-2.385,-2.3841,-2.3859,-2.3858,-2.3861,-2.3757,-2.3742,-2.3865,-2.3865,-2.3865,-2.3865,-2.3865,-2.3865,-2.3554,-2.3612,-2.361,-2.3675,-2.3683,-2.3728,-2.3743,-2.3762,-2.3777,-2.3829,-2.3859,-2.3862,-2.3876,-2.3911,-2.3944,-2.3945,-2.3959,-2.3981,-2.3979,-2.3882,-2.3868,-2.3855,-2.3842,-2.3984,-2.3984,-2.408,-2.4081,-2.4082]},{"header":{"parameterUnit":"m.s-1","parameterCategory":1,"la1":30.2991,"la2":30.254,"lo1":-89.0895,"lo2":-89.0444,"dy":0.0017,"dx":0.0017,"nx":28,"ny":28,"refTime":"2025-09-07T21:00:00:Z","depth":0,"parameterNumber":3,"parameterNumberName":"V-component_of_WINDS"},"data":[0,0,0,0,0,0,0,0,0,0,0,0,0,0,0,0,0,0,0,0,0,0,0,0,0,0,0,0,0,0,0,0,0,0,0,0,0,0,0,0,0,0,0,0,0,0,0,0,0,0,0,0,0,0,0,0,0,0,-5.1403,-5.1403,0,-5.1423,-5.1423,-5.1423,-5.1367,-5.1366,-5.1364,-5.1362,-5.1379,-5.1381,-5.1383,0,0,0,0,0,0,0,0,0,0,0,0,0,-5.1314,-5.1316,-5.1403,-5.1403,-5.1404,-5.1423,-5.1423,-5.1423,-5.1368,-5.1365,-5.1363,-5.1361,-5.1379,-5.1381,-5.1383,0,0,0,0,0,0,0,0,0,0,0,0,0,-5.1345,-5.1317,-5.1403,-5.1378,-5.1376,-5.1423,-5.1423,-5.1423,-5.1368,-5.1365,-5.1363,-5.136,-5.1378,-5.1381,-5.1384,-5.1454,0,0,-5.1393,-5.1395,0,0,0,0,0,0,0,0,-5.1343,-5.1348,-5.1382,-5.138,-5.1378,-5.139,-5.1398,-5.1434,-5.1369,-5.1371,-5.1362,-5.1359,-5.1385,-5.1387,-5.1396,-5.1455,-5.1456,-5.1393,-5.1395,-5.1397,-5.1398,0,0,0,0,0,0,0,-5.1341,-5.1347,-5.1411,-5.1382,-5.138,-5.1365,-5.1367,-5.1404,-5.1392,-5.1371,-5.1367,-5.137,-5.1383,-5.1393,-5.1396,-5.1456,-5.1393,-5.1396,-5.1398,-5.1399,-5.1573,-5.1576,0,0,0,0,0,0,-5.1343,-5.1346,-5.141,-5.1411,-5.1354,-5.1369,-5.137,-5.1389,-5.1391,-5.1389,-5.1372,-5.1367,-5.1389,-5.1393,-5.1397,-5.1479,-5.1397,-5.14,-5.1401,-5.1571,-5.1574,-5.1577,0,0,0,0,0,0,-5.1341,-5.1349,-5.1409,-5.1378,-5.1384,-5.1373,-5.1394,-5.139,-5.1401,-5.1393,-5.139,-5.1385,-5.1388,-5.1392,-5.1441,-5.1479,-5.1401,-5.1404,-5.1567,-5.1572,-5.1576,-5.1645,0,0,0,0,0,0,-5.1339,-5.1349,-5.1376,-5.1379,-5.1386,-5.1454,-5.1396,-5.1393,-5.1406,-5.14,-5.1404,-5.1402,-5.1386,-5.1436,-5.1444,-5.1482,-5.1406,-5.1564,-5.1569,-5.1574,-5.164,-5.1651,-5.1662,0,0,0,0,0,-5.1336,-5.1394,-5.1378,-5.1386,-5.142,-5.1456,-5.146,-5.1442,-5.141,-5.1437,-5.1432,-5.1402,-5.1474,-5.1442,-5.1449,-5.1489,-5.1561,-5.1568,-5.1574,-5.1635,-5.1649,-5.1661,0,0,0,0,0,0,-5.1395,-5.1394,-5.1376,-5.1437,-5.1448,-5.1447,-5.148,-5.1457,-5.1476,-5.1469,-5.1444,-5.1445,-5.1498,-5.1498,-5.1463,-5.1558,-5.1512,-5.152,-5.1556,-5.1569,-5.158,-5.1579,-5.1409,0,0,0,0,0,-5.1416,-5.1447,-5.1443,-5.1498,-5.1504,-5.1492,-5.1506,-5.1491,-5.15,-5.1504,-5.1502,-5.1511,-5.1536,-5.1553,-5.1575,-5.1639,-5.1639,-5.1671,-5.1682,-5.1691,-5.1698,-5.1732,-5.1746,-5.1598,-5.1598,-5.1597,0,0,-5.1458,-5.1461,-5.1482,-5.151,-5.1516,-5.1547,-5.1495,-5.153,-5.1553,-5.1509,-5.1555,-5.1554,-5.1562,-5.1619,-5.1644,-5.1621,-5.1739,-5.1699,-5.1706,-5.1708,-5.174,-5.1754,-5.1767,-5.1602,-5.1601,-5.16,0,0,-5.1551,-5.1557,-5.1603,-5.161,-5.1621,-5.1612,-5.1624,-5.1627,-5.1625,-5.1671,-5.1638,-5.1664,-5.1707,-5.1714,-5.1724,-5.182,-5.1794,-5.1828,-5.1886,-5.1919,-5.1931,-5.1941,-5.1976,-5.1988,-5.1835,-5.1836,-5.1836,0,-5.1602,-5.1649,-5.1629,-5.1667,-5.168,-5.1643,-5.1688,-5.1696,-5.1713,-5.1722,-5.1697,-5.175,-5.1753,-5.1811,-5.1835,-5.1844,-5.1855,-5.1828,-5.1931,-5.1941,-5.195,-5.1983,-5.1996,-5.184,-5.1839,-5.1839,-5.1839,0,-5.1711,-5.1744,-5.178,-5.1799,-5.1815,-5.1857,-5.1842,-5.1862,-5.1845,-5.1839,-5.1886,-5.1889,-5.1911,-5.1923,-5.1907,-5.1979,-5.1965,-5.1936,-5.1889,-5.1969,-5.1999,-5.2011,-5.1846,-5.1844,-5.1843,-5.1842,0,0,-5.1842,-5.1849,-5.1863,-5.1871,-5.188,-5.1905,-5.1944,-5.1967,-5.1984,-5.1997,-5.2029,-5.2067,-5.204,-5.2051,-5.2035,-5.2064,-5.2141,-5.2031,-5.2031,-5.2052,-5.2221,-5.2243,-5.2257,-5.2123,-5.2126,-5.2127,-5.222,0,-5.1933,-5.2003,-5.1986,-5.2055,-5.2085,-5.205,-5.2084,-5.2093,-5.2089,-5.2113,-5.2107,-5.2134,-5.2097,-5.2103,-5.2131,-5.2126,-5.2174,-5.2119,-5.2152,-5.2154,-5.2152,-5.2273,-5.2296,-5.2384,-5.2232,-5.2234,-5.2235,0,-5.205,-5.2069,-5.2141,-5.2145,-5.2157,-5.2189,-5.2208,-5.2232,-5.2241,-5.2235,-5.2248,-5.2226,-5.2265,-5.2218,-5.2271,-5.2233,-5.2246,-5.2246,-5.2248,-5.2251,-5.2199,-5.2279,-5.2411,-5.2424,-5.2253,-5.2252,-5.225,0,-5.2138,-5.2181,-5.223,-5.2238,-5.2244,-5.2267,-5.2271,-5.2277,-5.2292,-5.2309,-5.2318,-5.2339,-5.235,-5.2366,-5.2351,-5.2318,-5.2405,-5.2358,-5.2401,-5.2402,-5.2421,-5.242,-5.2557,-5.243,-5.2429,-5.2429,-5.2429,0,-5.2242,-5.2287,-5.227,-5.23,-5.2349,-5.2329,-5.2378,-5.2377,-5.2384,-5.2412,-5.2383,-5.241,-5.2387,-5.2412,-5.24,-5.2445,-5.245,-5.2447,-5.2443,-5.2449,-5.245,-5.2457,-5.2451,-5.2433,-5.2432,-5.2431,-5.2431,0,-5.2349,-5.2339,-5.239,-5.2392,-5.2394,-5.243,-5.2432,-5.2459,-5.2452,-5.2489,-5.2496,-5.2486,-5.2514,-5.25,-5.2528,-5.252,-5.2578,-5.2566,-5.2576,-5.2572,-5.2617,-5.2613,-5.2763,-5.2782,-5.2643,-5.2644,-5.2645,0,-5.2416,-5.245,-5.2457,-5.2475,-5.2481,-5.2509,-5.2525,-5.2506,-5.2523,-5.2536,-5.2562,-5.2587,-5.2607,-5.2653,-5.2647,-5.2669,-5.2657,-5.2708,-5.266,-5.2666,-5.2658,-5.2656,-5.2659,-5.2718,-5.272,-5.2721,-5.2722,0,-5.2536,-5.253,-5.2554,-5.2577,-5.2596,-5.2613,-5.2626,-5.2642,-5.2624,-5.2645,-5.2673,-5.2689,-5.2718,-5.2744,-5.2763,-5.2765,-5.2741,-5.2737,-5.2749,-5.2756,-5.276,-5.2758,-5.2602,-5.2734,-5.2733,-5.2732,-5.2731,-5.2731,-5.2625,-5.2654,-5.2664,-5.2691,-5.27,-5.2714,-5.274,-5.2737,-5.2761,-5.2785,-5.2772,-5.2806,-5.2814,-5.2837,-5.2843,-5.2868,-5.2847,-5.2864,-5.2868,-5.2872,-5.2878,-5.2756,-5.2871,-5.2871,-5.2871,-5.287,-5.287,0,-5.2744,-5.2749,-5.2775,-5.2796,-5.2817,-5.2794,-5.2808,-5.2827,-5.2857,-5.2867,-5.2888,-5.2921,-5.2945,-5.2942,-5.2965,-5.2986,-5.2975,-5.2992,-5.299,-5.2991,-5.2895,-5.2883,-5.3,-5.3,-5.3,-5.3,-5.3,-5.3,-5.2809,-5.2856,-5.2851,-5.2903,-5.2906,-5.294,-5.295,-5.2963,-5.2971,-5.3009,-5.303,-5.3028,-5.3033,-5.3055,-5.3077,-5.3075,-5.3085,-5.3106,-5.31,-5.3011,-5.2998,-5.2986,-5.2974,-5.3109,-5.3109,-5.3194,-5.3195,-5.3196]}]]